Preview of NWS' New Version of Forecast
This preview is not operational and should not be used for support decisions.
Latest weather observations around

Everett Snohomish County (KPAE)

Using International System of Units (Switch to English Units)
Date/ Time (PST) Wind (kph) Vis. (km) Weather Sky Cond. Temp (°C) Rel. Humidity Wind Chill (°C) Heat Index (°C) Pressure Precip. (cm)
Air Dwpt 6 hour Altimeter (hPa) Sea level (hPa) 1 hr 3 hr 6 hr
Max Min
Jan 24 00:53 Calm 12.87 Cloudy OVC017 6 4     92%     1032.5 1032.9      
Jan 24 00:19 Calm 9.66 Fog/Mist BKN016 OVC045 6 5     96%     1032.2        
Jan 23 23:53 Calm 9.66 Fog/Mist FEW017 OVC045 6 5     96%     1032.5 1032.9      
Jan 23 22:53 Calm 14.48 Cloudy BKN045 OVC055 4 3     93%     1031.8 1032.4      
Jan 23 21:53 Calm 16.09 Cloudy BKN050 OVC055 4 3     93%     1030.8 1031.3      
Jan 23 20:53 Calm 16.09 Mostly Clear FEW047 5 4     93%     1030.5 1030.9      
Jan 23 20:26 Calm 16.09 Mostly Clear FEW017 6 4     92%     1030.5        
Jan 23 19:53 Calm 16.09 Cloudy OVC018 4 4     97%     1030.5 1030.9      
Jan 23 19:44 NNW 5 16.09 Mostly Cloudy BKN019 6 4     92% 5   1030.5        
Jan 23 18:53 Calm 16.09 Mostly Clear FEW012 5 4     93%     1030.1 1030.3      
Jan 23 17:53 Calm 16.09 Mostly Cloudy BKN012 7 4     85%     1029.1 1029.6      
Jan 23 16:53 N 8 16.09 Mostly Cloudy SCT009 BKN010 7 4     85% 5   1029.1 1029.3      
Jan 23 16:48 N 5 16.09 Mostly Cloudy SCT009 BKN010 7 4     81% 6   1029.1        
Jan 23 15:53 NW 8 16.09 Mostly Cloudy BKN009 7 5     86% 6   1028.8 1028.8     0
Jan 23 15:42 NNW 5 16.09 Mostly Cloudy BKN009 7 5     86% 6   1028.5        
Jan 23 14:53 SSW 5 16.09 Cloudy OVC010 8 5     82% 7   1028.1 1028.4      
Jan 23 14:23 Calm 16.09 Cloudy OVC010 8 5     82%     1027.8        
Jan 23 13:53 NNW 5 16.09 Cloudy OVC007 7 5     86% 6   1027.8 1027.9      
Jan 23 12:53 N 8 16.09 Cloudy OVC007 7 5     89% 5   1027.4 1027.6   0  
Jan 23 11:53 8 16.09 Cloudy OVC008 7 6     93% 5   1027.1 1027.2 0    
Jan 23 10:53 NW 11 16.09 Light Rain BKN003 OVC011 7 6     93% 4   1026.1 1026.4 0    
Jan 23 09:53 NW 13 16.09 Cloudy BKN003 OVC009 6 6     97% 3   1024.7 1024.9     0
Jan 23 09:16 11 16.09 Cloudy OVC002 6 6     97% 4   1023.4        
Jan 23 08:53 NW 13 1.61 Fog/Mist OVC002 6 6     100% 3   1022.7 1022.9 0    
Jan 23 07:55 NNW 13 1.61 Light Rain and Fog/Mist VV002 6 6     100% 3   1020.7   0    
Jan 23 07:53 NW 11 0.8 Light Rain and Fog VV001 6 6     100% 4   1020.7 1021 0    
Jan 23 07:34 W 13 0.8 Fog VV001 7 7     97% 5   1020.3        
Jan 23 07:32 W 11 1.61 Fog/Mist OVC003 7 7     97% 5   1020        
Jan 23 07:18 WSW 15 3.22 Fog/Mist BKN003 BKN009 OVC027 7 7     97% 5   1019.7        
Jan 23 06:53 SW 11 16.09 Cloudy FEW004 BKN019 OVC025 8 8     97% 6   1018.6 1019 0 0  
Jan 23 06:41 W 8 16.09 Light Rain SCT005 SCT011 OVC018 8 8     97% 7   1018.6   0    
Jan 23 05:53 NW 5 6.44 Light Rain and Fog/Mist OVC008 9 8     93% 8   1017.3 1017.4 0    
Jan 23 05:01 Calm 4.83 Light Rain and Fog/Mist BKN010 OVC015 9 8     96%     1016.3   0    
Jan 23 04:53 Calm 4.02 Rain and Fog/Mist FEW006 SCT010 OVC015 9 8     96%     1015.9 1016.2 0    
Jan 23 04:51 Calm 4.02 Rain and Fog/Mist FEW006 BKN015 OVC021 9 8     93%     1015.9   0    
Jan 23 04:38 5 4.83 Light Rain and Fog/Mist FEW004 OVC009 9 8     96% 8   1015.6   0    
Jan 23 04:31 WSW 5 3.22 Light Rain and Fog/Mist SCT006 BKN010 OVC013 9 8     96% 8   1015.6   0    
Jan 23 04:24 Calm 2.82 Light Rain and Fog/Mist FEW006 OVC012 9 8     96%     1015.2   0    
Jan 23 04:21 5 3.22 Light Rain and Fog/Mist OVC012 9 8     96% 8   1015.2   0    
Jan 23 03:53 S 15 16.09 Cloudy OVC011 9 8     93% 7   1014.2 1014.5      
Jan 23 03:44 S 18 16.09 Cloudy OVC013 10 8     89%     1014.2        
Jan 23 03:10   16.09 Cloudy FEW010 BKN016 OVC090 10 8     89%     1012.9        
Jan 23 02:53   16.09 Mostly Cloudy BKN010 BKN014 BKN090 9 8     93%     1012.2 1012.6      
Jan 23 01:53   16.09 Cloudy OVC007 9 8     93%     1012.5 1012.7      
Jan 23 00:53   16.09 Cloudy OVC006 9 8     93%     1012.2 1012.5      
Jan 22 23:53   11.27 Cloudy OVC007 9 8     93%     1013.2 1013.3      
Jan 22 22:53   16.09 Cloudy BKN007 OVC016 8 7     93%     1013.6 1013.9      
Jan 22 21:53   16.09 Cloudy OVC009 8 7     93%     1014.9 1015.3 0   1
Jan 22 21:42 SE 30 16.09 Cloudy BKN009 OVC019 8 7     93% 4   1015.2   0    
Jan 22 21:31 SE 30 16.09 Cloudy BKN010 BKN015 OVC055 8 7     93% 4   1015.6   0    
Jan 22 20:53 SE 26 6.44 Light Rain and Fog/Mist BKN006 BKN012 OVC036 8 7     93% 4   1016.6 1016.7 0    
Jan 22 19:53   6.44 Light Rain and Fog/Mist BKN007 OVC012 7 6     93%     1016.9 1017.3 0    
Jan 22 19:01 SE 30 14.48 Light Rain OVC005 7 6     93% 2   1017.6   0    
Jan 22 18:53 SE 28 4.83 Light Rain and Fog/Mist OVC004 7 6     93% 2   1017.6 1017.9 0 0  
Jan 22 18:09 SE 28 4.83 Fog/Mist OVC004 7 6     93% 2   1019        
Jan 22 18:02 SE 24 9.66 Fog/Mist OVC005 7 6     93% 3   1019        
Jan 22 17:53 SE 18 9.66 Fog/Mist OVC004 7 6     93% 3   1019.7 1019.8 0    
Jan 22 17:25 ESE 22 6.44 Fog/Mist BKN004 OVC010 6 6     97% 2   1020   0    
Jan 22 17:18 ESE 18 9.66 Light Rain and Fog/Mist BKN005 OVC010 6 6     97% 3   1020   0    
Jan 22 16:53 SE 21 4.83 Light Rain and Fog/Mist OVC004 6 6     97% 2   1021 1021.5 0    
Jan 22 16:01 ESE 22 6.44 Light Rain and Fog/Mist BKN007 BKN012 OVC038 6 5     93% 2   1022   0    
Jan 22 15:53 SE 21 8.05 Light Rain and Fog/Mist SCT007 BKN012 OVC038 6 5     93% 2   1022.4 1022.6 0   0
Jan 22 14:53 SE 26 14.48 Light Rain BKN004 BKN009 OVC043 6 4     89% 2   1022.7 1023.2 0    
Jan 22 14:05   14.48 Light Rain BKN004 BKN009 OVC043 6 4     89%     1023.4   0    
Jan 22 13:53 SE 30 16.09 Light Rain BKN009 BKN012 OVC043 6 4     89% 2   1023.4 1023.8 0    
Jan 22 13:28   16.09 Cloudy OVC009 6 4     89%     1024.1        
Jan 22 12:53   16.09 Mostly Cloudy SCT006 BKN014 BKN049 6 4     86%     1024.4 1024.6      
Jan 22 11:53   16.09 Mostly Cloudy SCT006 BKN014 BKN049 7 3     76%     1025.1 1025.3      
Jan 22 10:53 SE 28 16.09 Mostly Clear FEW019 7 3     74% 3   1025.7 1026      
Jan 22 09:53 SE 32 16.09 Mostly Cloudy and Windy BKN080 7 2     73% 2   1026.1 1026.6     0
Jan 22 08:53 SE 24 16.09 Cloudy FEW025 OVC075 7 1     67% 3   1026.8 1027.1      
Jan 22 07:53 SE 30 16.09 Cloudy OVC075 7 1     67% 2   1026.8 1027      
Jan 22 06:53 ESE 21 16.09 Cloudy OVC070 6 1     70% 2   1027.4 1027.9   0  
Jan 22 05:53 ESE 18 16.09 Cloudy FEW034 BKN065 OVC080 5 1     76% 1   1027.8 1028.2      
Jan 22 04:53 ESE 18 16.09 Cloudy BKN034 BKN043 OVC055 5 1     76% 1   1027.8 1028.2 0    
Jan 22 03:53 ESE 17 16.09 Light Rain SCT029 BKN037 OVC044 5 1     73% 2   1028.1 1028.6 0   0
Jan 22 02:53 ESE 24 16.09 Cloudy OVC075 5 1     73% 1   1029.1 1029.3      
Jan 22 01:53 SE 22 16.09 Cloudy OVC100 5 1     73% 1   1028.8 1029.2      
Jan 22 00:53 8 16.09 Cloudy OVC110 4 1     76% 3   1029.1 1029.6      
Jan 21 23:53 ESE 11 16.09 Mostly Cloudy BKN120 4 0     76% 1   1029.5 1029.9      
Jan 21 22:53 8 16.09 Clear CLR 4 0     76% 2   1029.5 1029.9      
Jan 21 21:53 ESE 9 16.09 Clear CLR 4 1     76% 2   1029.5 1030      
Jan 21 20:53 11 16.09 Clear CLR 4 1     79% 2   1029.5 1029.8      
Jan 21 19:53 8 16.09 Clear CLR 5 2     79% 3   1029.5 1029.8      
Jan 21 18:53 ESE 13 16.09 Clear CLR 6 2     79% 3   1029.1 1029.5      
Jan 21 17:53 SE 9 16.09 Partly Cloudy FEW020 SCT050 6 2     79% 4   1029.1 1029.4      
Jan 21 16:53 SE 11 16.09 Cloudy SCT020 BKN030 OVC040 6 2     79% 3   1028.8 1029.2      
Jan 21 15:53 ENE 5 16.09 Cloudy SCT020 BKN030 OVC040 7 3     74% 6   1028.5 1028.9      
Jan 21 15:22 ESE 8 16.09 Cloudy SCT020 BKN030 OVC040 7 4     80% 6   1028.5        
Jan 21 15:15 Calm 16.09 Cloudy SCT020 BKN027 OVC040 7 3     76%     1028.1        
Jan 21 15:02 E 8 16.09 Cloudy FEW014 BKN040 OVC049 7 3     79% 5   1028.1        
Jan 21 14:53 E 9 16.09 Cloudy SCT016 BKN021 OVC042 7 3     76% 5   1027.8 1028.2      
Jan 21 13:53 W 5 16.09 Cloudy SCT016 BKN021 OVC042 7 3     76% 6   1027.4 1027.8      
Jan 21 13:51 W 5 16.09 Cloudy BKN018 BKN033 OVC050 7 3     76% 6   1027.4        
Jan 21 12:53 Calm 16.09 Cloudy SCT013 OVC050 7 2     73%     1027.1 1027.6      
Jan 21 11:53 Calm 16.09 Cloudy SCT013 SCT019 OVC050 6 3     79%     1026.4 1026.9      
Jan 21 10:53 SSE 5 16.09 Cloudy SCT006 OVC046 6 4     89% 5   1026.4 1026.7      
Jan 21 10:46 SE 5 16.09 Cloudy SCT006 OVC046 5 4     93% 4   1026.1        
Jan 21 09:53 SE 5 16.09 Cloudy SCT025 OVC045 4 3     93% 3   1025.1 1025.3      
Jan 21 08:53 Calm 16.09 Cloudy FEW018 OVC044 4 3     89%     1024.1 1024.4      
Jan 21 08:00 ESE 5 16.09 Cloudy OVC042 3 2     92% 2   1023        
Jan 21 07:53 Calm 16.09 Cloudy BKN015 BKN020 OVC046 3 3     97%     1023 1023.3      
Jan 21 06:53 Calm 16.09 Cloudy BKN015 OVC046 3 3     97%     1022 1022.4      
Jan 21 06:24 S 5 16.09 Mostly Cloudy SCT017 BKN046 3 2     96% 1   1021.3        
Jan 21 05:53 SSW 9 16.09 Cloudy BKN018 OVC040 4 3     93% 2   1021 1021.3      
Jan 21 04:53 Calm 16.09 Cloudy FEW015 OVC045 4 3     96%     1020.3 1020.6      
Jan 21 03:53 SSW 8 16.09 Cloudy SCT015 OVC042 4 4     97% 3   1019.7 1019.9      
Jan 21 03:36 SSW 8 16.09 Cloudy BKN015 OVC042 4 3     93% 3   1019.3        
Jan 21 02:53 SW 5 16.09 Cloudy OVC041 4 3     93% 3   1019 1019.3      
Jan 21 01:53 W 8 16.09 Cloudy OVC033 4 3     89% 3   1018 1018.4      
May 14 07:53 SE 5 16.09 Clear CLR 18 12     65%     1014.9 1014.7      
Notice The following observation data may not be complete
May 14 05:53 ESE 5 16.09 Clear CLR   11      %     1014.6 1014.3      
May 14 02:53 E 13 16.09 Clear CLR 17 11     67%     1013.9 1013.6      
May 13 04:53 NNW 11 16.09 Clear CLR 13 10     83%     1014.9 1014.9      
May 12 08:17 NNW 8 2.41 Fog/Mist SCT001 11 10     96%     1022.4        
May 12 02:53 NNW 8 16.09 Clear CLR 10 9     93% 9   1022.7 1022.5      
May 12 01:53 NNW 8 16.09 Clear CLR 10 8     89% 9   1022.7 1022.7      
May 11 18:53 NW 9 16.09 Clear CLR 17 8     56%     1023 1022.9      
Jun 11 21:53 8 16.09 Clear CLR 13 9     77%     1015.9 1015.8      
Jun 11 20:53 NW 8 16.09 Clear   14 9     70%     1015.9 1015.7      
Jun 11 19:53 NW 9 16.09 Clear   17 7     52%     1015.9 1015.6      
Jun 11 11:53 WSW 11 16.09 Clear CLR 15 11     75%     1017.6 1017.5      
Jun 10 23:53 N 9 16.09 Clear   12 9     80%     1014.2 1014.3      
Jun 10 16:53 NW 11 16.09 Clear CLR 16 6     52%     1011.5 1011.6      
Notice The following observation data may not be complete
Jun 10 02:39   16.09 Cloudy BKN015 OVC080          %              
Jun 10 01:48   16.09 Cloudy FEW016 BKN070 OVC085 11 8     82%     1011.5        
Jun 09 11:10 Calm 16.09 Cloudy FEW025 BKN031 OVC080 13 8     72%     1012.2        
Jun 09 06:53 ESE 15 16.09 Cloudy OVC055 10 8     86% 8   1012.9 1012.8      
Jun 09 02:53 SSE 13 16.09 Mostly Cloudy BKN070 11 7     79%     1014.2 1014      
Jun 08 07:29 SSE 13 12.87 Light Rain SCT004 BKN009 BKN045 13 12     93%     1003.7   0    
Jun 06 05:53 WNW 5 16.09 Clear CLR 11 9     86%     1016.9 1016.6      
Jun 05 22:53 8 16.09 Clear CLR 12 8     80%     1018.6 1018.5      
Jun 05 18:53 NW 11 16.09 Clear CLR 18 8     52%     1018.3 1018.4